Overview Statistics Trail Chart Weather Telemetry Raw packets
 

This is the latest recevied weather packets stored in our database for station/object N7ZEF. If no packets are shown the sender has not sent any weather packets the latest 10 day(s).

<< 45 46 47 48 49 50 51 >>
Time Temp. Humidity Pressure Rain* Wind** Luminosity Snow
1777478210 7.22° C 43% 1023.5 hPa 0 mm - - -
1777477609 7.22° C 48% 1023.5 hPa 0 mm - - -
1777477008 6.67° C 50% 1023.6 hPa 0 mm - - -
1777476406 6.11° C 52% 1023.6 hPa 0 mm - - -
1777475805 6.11° C 54% 1023.7 hPa 0 mm - - -
1777475203 5.56° C 57% 1023.7 hPa 0 mm - - -
1777474602 5.56° C 58% 1023.7 hPa 0 mm - - -
1777474001 5° C 59% 1023.7 hPa 0 mm - - -
1777473399 5° C 62% 1023.9 hPa 0 mm - - -
1777472798 4.44° C 63% 1023.9 hPa 0 mm - - -
1777472197 3.89° C 64% 1023.7 hPa 0 mm - - -
1777471595 3.33° C 66% 1023.7 hPa 0 mm - - -
1777470994 2.78° C 69% 1023.6 hPa 0 mm - - -
1777470392 2.22° C 72% 1023.5 hPa 0 mm - - -
1777469791 1.67° C 74% 1023.5 hPa 0 mm - - -
1777469190 1.67° C 76% 1023.2 hPa 0 mm - - -
1777468585 0.56° C 79% 1023.1 hPa 0 mm - - -
1777467984 0° C 82% 1023 hPa 0 mm - - -
1777467383 -0.56° C 82% 1023 hPa 0 mm - - -
1777466781 -0.56° C 83% 1022.7 hPa 0 mm - - -
1777466180 -1.11° C 82% 1022.7 hPa 0 mm - - -
1777465578 -1.11° C 83% 1022.6 hPa 0 mm - - -
1777464977 -1.11° C 83% 1022.5 hPa 0 mm - - -
1777464376 -1.11° C 83% 1022.3 hPa 0 mm - - -
1777463774 -0.56° C 83% 1022.5 hPa 0 mm - - -

* Rain latest hour (hover to see other rain measurements)
** Current wind speed in m/s (hover to see current wind gust speed)